User: anonymous   Login
Location: Unspecified
(0.0000°N, 0.0000°E)
Time: 11:45:57
(UTC+00:00)
Language:

NOSS 2-2 (E) - Orbit

View from above orbital plane
View from above orbital plane
View from above satellite
View from above satellite

Ground track
Ground track

The orbit data is extracted from the following two-line orbital elements,

1 21809U 91076E   18106.83932184 0.00000120  00000-0  33610-4 0    00
2 21809  63.3572  33.6315 0775000  25.6063 334.3937 13.41409742    07
Epoch (UTC): 16 April 2018 20:08:37
Eccentricity: 0.0775000
inclination: 63.3572°
perigee height: 524 km
apogee height: 1684 km
right ascension of ascending node: 33.6315°
argument of perigee: 25.6063°
revolutions per day: 13.41409742
mean anomaly at epoch: 334.3937°
orbit number at epoch: 0

The dashed part of the orbit path shows where the satellite is in the earth's shadow,  

DLR